CES8941 ZGHA-ZGGG

Flight info

Callsign CES8941
Flight time 0h 59m
Altitude 26600
Route UBM9W UBMOG W615 IDAXI R473 BEMAG/K0802S0780 V5 ATAGA
Aircraft A21N/M-SDE2E3FGHIRWXY/LB1

Departure

Time 2026-04-26 03:19
Airport Changsha Huanghua International Airport (ZGHA)

Arrival

Time 2026-04-26 04:19
Airport Guangzhou Baiyun International Airport (ZGGG)
Time Latitude Longitude Altitude Speed Heading
2026-04-26 02:56 28.18510 113.21625 226 ft 0 kts 177°
2026-04-26 03:08 28.18518 113.21624 226 ft 0 kts 177°
2026-04-26 03:09 28.18532 113.21622 226 ft 2 kts 164°
2026-04-26 03:09 28.18546 113.21616 226 ft 2 kts 150°
2026-04-26 03:09 28.18558 113.21606 226 ft 2 kts 136°
2026-04-26 03:09 28.18568 113.21594 226 ft 2 kts 123°
2026-04-26 03:10 28.18575 113.21579 226 ft 2 kts 109°
2026-04-26 03:10 28.18578 113.21562 226 ft 2 kts 95°
2026-04-26 03:10 28.18579 113.21553 226 ft 1 kts 87°
2026-04-26 03:10 28.18578 113.21546 226 ft 0 kts 86°
2026-04-26 03:13 28.18579 113.21563 226 ft 4 kts 88°
2026-04-26 03:13 28.18581 113.21626 226 ft 9 kts 88°
2026-04-26 03:13 28.18583 113.21703 226 ft 10 kts 87°
2026-04-26 03:14 28.18626 113.21798 226 ft 19 kts 15°
2026-04-26 03:14 28.18795 113.21796 226 ft 26 kts 356°
2026-04-26 03:14 28.18992 113.21783 226 ft 29 kts 356°
2026-04-26 03:14 28.19217 113.21770 226 ft 34 kts 357°
2026-04-26 03:15 28.19446 113.21755 226 ft 31 kts 357°
2026-04-26 03:15 28.19662 113.21742 226 ft 29 kts 356°
2026-04-26 03:15 28.19864 113.21729 226 ft 28 kts 357°
2026-04-26 03:15 28.20055 113.21718 226 ft 26 kts 356°
2026-04-26 03:16 28.20238 113.21706 226 ft 25 kts 357°
2026-04-26 03:16 28.20414 113.21696 226 ft 24 kts 357°
2026-04-26 03:16 28.20551 113.21687 226 ft 16 kts
2026-04-26 03:16 28.20604 113.21759 226 ft 3 kts 89°
2026-04-26 03:17 28.20604 113.21760 226 ft 0 kts 89°
2026-04-26 03:17 28.20604 113.21771 226 ft 3 kts 89°
2026-04-26 03:18 28.20601 113.21841 226 ft 13 kts 107°
2026-04-26 03:18 28.20505 113.21883 226 ft 11 kts 181°
2026-04-26 03:18 28.20496 113.21883 226 ft 0 kts 179°
2026-04-26 03:18 28.20334 113.21890 226 ft 61 kts 177°
2026-04-26 03:19 28.19645 113.21931 226 ft 133 kts 176°
2026-04-26 03:19 28.18553 113.22011 482 ft 167 kts 178°
2026-04-26 03:19 28.17425 113.22088 1243 ft 164 kts 177°
2026-04-26 03:19 28.16286 113.22152 1958 ft 166 kts 176°
2026-04-26 03:20 28.15111 113.22227 2513 ft 179 kts 177°
2026-04-26 03:20 28.13814 113.22307 3047 ft 196 kts 178°
2026-04-26 03:20 28.12392 113.22392 3575 ft 211 kts 178°
2026-04-26 03:20 28.10883 113.22488 3876 ft 222 kts 174°
2026-04-26 03:21 28.09418 113.23093 4121 ft 231 kts 141°
2026-04-26 03:21 28.08512 113.24611 4505 ft 245 kts 106°
2026-04-26 03:21 28.08354 113.26518 5433 ft 247 kts 93°
2026-04-26 03:21 28.08274 113.28447 6345 ft 249 kts 94°
2026-04-26 03:22 28.08159 113.30394 7182 ft 253 kts 94°
2026-04-26 03:22 28.08031 113.32372 7991 ft 257 kts 93°
2026-04-26 03:22 28.07897 113.34399 8670 ft 267 kts 92°
2026-04-26 03:22 28.07758 113.36549 9169 ft 284 kts 92°
2026-04-26 03:23 28.07608 113.38849 9702 ft 299 kts 92°
2026-04-26 03:23 28.07453 113.41219 10434 ft 306 kts 92°
2026-04-26 03:23 28.07294 113.43635 10919 ft 321 kts 92°
2026-04-26 03:23 28.07066 113.46240 11322 ft 340 kts 95°
2026-04-26 03:24 28.06749 113.48965 11692 ft 358 kts 96°
2026-04-26 03:24 28.06402 113.51798 12023 ft 377 kts 96°
2026-04-26 03:24 28.06033 113.54805 12323 ft 394 kts 96°
2026-04-26 03:24 28.05649 113.57950 12602 ft 411 kts 96°
2026-04-26 03:25 28.05229 113.61187 12877 ft 427 kts 99°
2026-04-26 03:25 28.04181 113.64356 13296 ft 438 kts 119°
2026-04-26 03:25 28.02245 113.67020 13924 ft 440 kts 139°
2026-04-26 03:25 27.99671 113.68862 14498 ft 441 kts 158°
2026-04-26 03:26 27.96675 113.69693 15047 ft 441 kts 178°
2026-04-26 03:26 27.93603 113.69544 15675 ft 439 kts 188°
2026-04-26 03:26 27.90419 113.69184 16265 ft 443 kts 188°
2026-04-26 03:26 27.87180 113.68845 16870 ft 446 kts 188°
2026-04-26 03:27 27.84085 113.68549 17799 ft 439 kts 188°
2026-04-26 03:27 27.81043 113.68270 18919 ft 434 kts 188°
2026-04-26 03:27 27.78190 113.68016 20053 ft 426 kts 188°
2026-04-26 03:27 27.75223 113.67752 20808 ft 426 kts 189°
2026-04-26 03:28 27.72216 113.67476 21028 ft 439 kts 188°
2026-04-26 03:28 27.69078 113.67192 21245 ft 451 kts 188°
2026-04-26 03:28 27.65842 113.66921 21453 ft 463 kts 187°
2026-04-26 03:28 27.62494 113.66818 21644 ft 475 kts 184°
2026-04-26 03:29 27.58836 113.66894 21898 ft 485 kts 182°
2026-04-26 03:29 27.55400 113.66991 22294 ft 490 kts 182°
2026-04-26 03:29 27.51943 113.67091 22742 ft 492 kts 182°
2026-04-26 03:29 27.48439 113.67193 23178 ft 495 kts 181°
2026-04-26 03:30 27.44909 113.67439 23565 ft 500 kts 178°
2026-04-26 03:30 27.41442 113.67899 24095 ft 501 kts 175°
2026-04-26 03:30 27.38794 113.68318 24536 ft 500 kts 175°
2026-04-26 03:30 27.35254 113.68890 25059 ft 500 kts 175°
2026-04-26 03:31 27.31755 113.69453 25558 ft 499 kts 175°
2026-04-26 03:31 27.28264 113.70013 26036 ft 499 kts 175°
2026-04-26 03:31 27.24750 113.70574 26428 ft 501 kts 175°
2026-04-26 03:31 27.21204 113.71139 26717 ft 505 kts 175°
2026-04-26 03:32 27.17710 113.71699 27043 ft 507 kts 175°
2026-04-26 03:32 27.14132 113.72273 27391 ft 509 kts 175°
2026-04-26 03:32 27.10609 113.72836 27602 ft 511 kts 175°
2026-04-26 03:32 27.07057 113.73402 27603 ft 512 kts 175°
2026-04-26 03:33 27.03457 113.73977 27606 ft 513 kts 175°
2026-04-26 03:33 27.02012 113.74208 27604 ft 512 kts 175°
2026-04-26 03:33 26.98991 113.74691 27605 ft 511 kts 175°
2026-04-26 03:33 26.95328 113.75275 27602 ft 512 kts 175°
2026-04-26 03:34 26.92571 113.75712 27608 ft 512 kts 175°
2026-04-26 03:34 26.89118 113.76260 27597 ft 511 kts 175°
2026-04-26 03:34 26.85766 113.76793 27613 ft 511 kts 175°
2026-04-26 03:34 26.82212 113.77357 27612 ft 512 kts 175°
2026-04-26 03:35 26.78680 113.77917 27619 ft 512 kts 175°
2026-04-26 03:35 26.75111 113.78574 27633 ft 513 kts 172°
2026-04-26 03:35 26.71587 113.79446 27645 ft 515 kts 169°
2026-04-26 03:35 26.68132 113.80494 27646 ft 515 kts 167°
2026-04-26 03:36 26.64644 113.81593 27648 ft 515 kts 167°
2026-04-26 03:36 26.61182 113.82688 27651 ft 515 kts 167°
2026-04-26 03:36 26.57728 113.83777 27659 ft 515 kts 167°
2026-04-26 03:36 26.54288 113.84856 27648 ft 515 kts 167°
2026-04-26 03:37 26.50861 113.85928 27655 ft 514 kts 167°
2026-04-26 03:37 26.47367 113.86990 27668 ft 514 kts 168°
2026-04-26 03:37 26.43936 113.87989 27672 ft 515 kts 168°
2026-04-26 03:37 26.40460 113.88985 27675 ft 515 kts 168°
2026-04-26 03:38 26.36964 113.89986 27681 ft 514 kts 168°
2026-04-26 03:38 26.33503 113.90978 27695 ft 515 kts 168°
2026-04-26 03:38 26.30042 113.91975 27714 ft 514 kts 168°
2026-04-26 03:38 26.26593 113.92968 27732 ft 514 kts 168°
2026-04-26 03:39 26.23094 113.93977 27743 ft 514 kts 168°
2026-04-26 03:39 26.19655 113.94968 27760 ft 513 kts 168°
2026-04-26 03:39 26.16163 113.95973 27768 ft 513 kts 168°
2026-04-26 03:39 26.12713 113.96967 27777 ft 513 kts 168°
2026-04-26 03:40 26.09252 113.97964 27777 ft 513 kts 168°
2026-04-26 03:40 26.05805 113.98928 27776 ft 512 kts 170°
2026-04-26 03:40 26.02270 113.99509 27776 ft 509 kts 178°
2026-04-26 03:40 25.98771 113.99558 27777 ft 504 kts 186°
2026-04-26 03:41 25.95312 113.99126 27782 ft 501 kts 192°
2026-04-26 03:41 25.91857 113.98529 27767 ft 501 kts 193°
2026-04-26 03:41 25.88388 113.97896 27752 ft 501 kts 193°
2026-04-26 03:41 25.84963 113.97272 27746 ft 501 kts 193°
2026-04-26 03:42 25.81520 113.96653 27738 ft 501 kts 193°
2026-04-26 03:42 25.78077 113.96046 27722 ft 500 kts 193°
2026-04-26 03:42 25.74598 113.95438 27704 ft 500 kts 192°
2026-04-26 03:42 25.71200 113.94847 27691 ft 500 kts 192°
2026-04-26 03:43 25.67726 113.94247 27691 ft 500 kts 192°
2026-04-26 03:43 25.64289 113.93653 27691 ft 500 kts 192°
2026-04-26 03:43 25.60838 113.93059 27696 ft 500 kts 192°
2026-04-26 03:43 25.57395 113.92466 27698 ft 499 kts 193°
2026-04-26 03:44 25.53968 113.91875 27699 ft 500 kts 192°
2026-04-26 03:44 25.50561 113.91289 27704 ft 499 kts 192°
2026-04-26 03:44 25.47123 113.90698 27707 ft 499 kts 192°
2026-04-26 03:44 25.43673 113.90105 27699 ft 500 kts 192°
2026-04-26 03:45 25.40239 113.89515 27694 ft 499 kts 192°
2026-04-26 03:45 25.36800 113.88924 27695 ft 498 kts 192°
2026-04-26 03:45 25.33354 113.88333 27689 ft 499 kts 192°
2026-04-26 03:45 25.29929 113.87745 27687 ft 498 kts 192°
2026-04-26 03:46 25.26523 113.87161 27678 ft 499 kts 192°
2026-04-26 03:46 25.23080 113.86568 27673 ft 498 kts 192°
2026-04-26 03:46 25.19657 113.85981 27656 ft 498 kts 192°
2026-04-26 03:47 25.12803 113.84809 27641 ft 499 kts 192°
2026-04-26 03:47 25.09350 113.84223 27632 ft 499 kts 192°
2026-04-26 03:47 25.05928 113.83643 27623 ft 499 kts 192°
2026-04-26 03:47 25.02508 113.83063 27620 ft 499 kts 192°
2026-04-26 03:48 24.99075 113.82478 27611 ft 498 kts 192°
2026-04-26 03:48 24.95625 113.81893 27607 ft 496 kts 192°
2026-04-26 03:48 24.92263 113.81324 27608 ft 477 kts 192°
2026-04-26 03:48 24.89045 113.80782 27608 ft 467 kts 192°
2026-04-26 03:49 24.85828 113.80234 27603 ft 448 kts 192°
2026-04-26 03:49 24.82824 113.79726 27608 ft 435 kts 192°
2026-04-26 03:49 24.79838 113.79215 27612 ft 434 kts 192°
2026-04-26 03:49 24.76835 113.78702 27613 ft 434 kts 192°
2026-04-26 03:50 24.73828 113.78186 27609 ft 434 kts 192°
2026-04-26 03:50 24.70867 113.77684 27611 ft 433 kts 193°
2026-04-26 03:50 24.67883 113.77176 27611 ft 433 kts 192°
2026-04-26 03:50 24.64896 113.76668 27606 ft 434 kts 192°
2026-04-26 03:51 24.61895 113.76159 27582 ft 431 kts 192°
2026-04-26 03:51 24.58962 113.75662 27162 ft 430 kts 192°
2026-04-26 03:51 24.55982 113.75157 26026 ft 438 kts 192°
2026-04-26 03:51 24.52959 113.74642 24482 ft 451 kts 192°
2026-04-26 03:52 24.49852 113.74112 22919 ft 461 kts 191°
2026-04-26 03:52 24.46661 113.73573 21620 ft 467 kts 191°
2026-04-26 03:52 24.43480 113.73035 20707 ft 467 kts 191°
2026-04-26 03:52 24.40297 113.72501 20083 ft 461 kts 191°
2026-04-26 03:53 24.37098 113.71964 19756 ft 459 kts 191°
2026-04-26 03:53 24.33938 113.71437 19708 ft 460 kts 191°
2026-04-26 03:53 24.30755 113.70909 19702 ft 460 kts 191°
2026-04-26 03:53 24.27587 113.70395 19697 ft 460 kts 190°
2026-04-26 03:54 24.24434 113.69887 19695 ft 460 kts 190°
2026-04-26 03:54 24.21261 113.69377 19698 ft 459 kts 190°
2026-04-26 03:54 24.18112 113.68862 19702 ft 459 kts 191°
2026-04-26 03:54 24.14922 113.68289 19706 ft 459 kts 191°
2026-04-26 03:55 24.11765 113.67725 19708 ft 459 kts 191°
2026-04-26 03:55 24.08643 113.67180 19617 ft 454 kts 191°
2026-04-26 03:55 24.05528 113.66643 19064 ft 450 kts 191°
2026-04-26 03:55 24.02456 113.66119 18310 ft 447 kts 191°
2026-04-26 03:56 23.99392 113.65597 17829 ft 444 kts 190°
2026-04-26 03:56 23.96324 113.65075 17628 ft 443 kts 190°
2026-04-26 03:56 23.93299 113.64563 17475 ft 440 kts 190°
2026-04-26 03:56 23.90249 113.64050 16980 ft 435 kts 190°
2026-04-26 03:57 23.87269 113.63548 16293 ft 432 kts 190°
2026-04-26 03:57 23.84314 113.63047 15874 ft 432 kts 191°
2026-04-26 03:57 23.81377 113.62306 15725 ft 431 kts 198°
2026-04-26 03:57 23.78560 113.61205 15717 ft 429 kts 204°
2026-04-26 03:58 23.75836 113.59735 15399 ft 422 kts 211°
2026-04-26 03:58 23.73289 113.58052 14652 ft 420 kts 213°
2026-04-26 03:58 23.70772 113.56310 13858 ft 418 kts 214°
2026-04-26 03:58 23.68298 113.54596 13139 ft 415 kts 214°
2026-04-26 03:59 23.65806 113.52887 12418 ft 411 kts 213°
2026-04-26 03:59 23.63767 113.51495 11848 ft 408 kts 213°
2026-04-26 03:59 23.61254 113.49915 11137 ft 405 kts 209°
2026-04-26 03:59 23.58597 113.48595 10444 ft 402 kts 203°
2026-04-26 04:00 23.55940 113.47604 10082 ft 390 kts 198°
2026-04-26 04:00 23.53273 113.46840 9839 ft 375 kts 195°
2026-04-26 04:00 23.50682 113.46141 9613 ft 361 kts 195°
2026-04-26 04:00 23.48194 113.45476 9383 ft 348 kts 195°
2026-04-26 04:01 23.45842 113.44843 9176 ft 336 kts 195°
2026-04-26 04:01 23.45612 113.44781 9158 ft 335 kts 195°
2026-04-26 04:01 23.44218 113.44404 9045 ft 327 kts 195°
2026-04-26 04:01 23.42003 113.43804 8832 ft 316 kts 195°
2026-04-26 04:02 23.40015 113.43263 8656 ft 306 kts 195°
2026-04-26 04:02 23.38257 113.42786 8503 ft 297 kts 195°
2026-04-26 04:02 23.36197 113.42226 8321 ft 286 kts 195°
2026-04-26 04:02 23.34223 113.41692 8142 ft 276 kts 195°
2026-04-26 04:03 23.32339 113.41181 7967 ft 267 kts 195°
2026-04-26 04:03 23.30512 113.40686 7858 ft 254 kts 195°
2026-04-26 04:03 23.28755 113.40211 7844 ft 248 kts 195°
2026-04-26 04:03 23.27061 113.39752 7849 ft 249 kts 195°
2026-04-26 04:04 23.25371 113.39294 7851 ft 249 kts 195°
2026-04-26 04:04 23.23675 113.38835 7848 ft 249 kts 195°
2026-04-26 04:04 23.21983 113.38377 7848 ft 249 kts 195°
2026-04-26 04:04 23.20296 113.37920 7847 ft 248 kts 195°
2026-04-26 04:05 23.18633 113.37470 7658 ft 245 kts 195°
2026-04-26 04:05 23.16969 113.37019 7296 ft 246 kts 195°
2026-04-26 04:05 23.15313 113.36571 6966 ft 245 kts 194°
2026-04-26 04:05 23.13648 113.36120 6654 ft 244 kts 194°
2026-04-26 04:06 23.12005 113.35676 6353 ft 242 kts 194°
2026-04-26 04:06 23.10387 113.35240 6063 ft 240 kts 194°
2026-04-26 04:06 23.08764 113.34804 5776 ft 238 kts 193°
2026-04-26 04:06 23.07137 113.34366 5497 ft 245 kts 193°
2026-04-26 04:07 23.05422 113.33904 5660 ft 254 kts 194°
2026-04-26 04:07 23.03723 113.33447 5746 ft 245 kts 194°
2026-04-26 04:07 23.02103 113.33009 5563 ft 239 kts 194°
2026-04-26 04:07 23.00482 113.32571 5267 ft 238 kts 193°
2026-04-26 04:08 22.98861 113.32134 4953 ft 237 kts 193°
2026-04-26 04:08 22.97271 113.31703 4659 ft 236 kts 194°
2026-04-26 04:08 22.95796 113.30953 4318 ft 237 kts 224°
2026-04-26 04:08 22.95040 113.29403 3984 ft 237 kts 263°
2026-04-26 04:09 22.95251 113.27657 3663 ft 236 kts 293°
2026-04-26 04:09 22.96203 113.26240 3330 ft 235 kts 322°
2026-04-26 04:09 22.97600 113.25363 3035 ft 233 kts 334°
2026-04-26 04:09 22.99051 113.24592 2746 ft 232 kts 334°
2026-04-26 04:10 23.00508 113.23790 2443 ft 232 kts 333°
2026-04-26 04:10 23.01932 113.22980 2189 ft 228 kts 332°
2026-04-26 04:10 23.03333 113.22214 2037 ft 220 kts 341°
2026-04-26 04:10 23.04792 113.22070 1938 ft 203 kts
2026-04-26 04:11 23.06171 113.22417 1936 ft 208 kts 15°
2026-04-26 04:11 23.07578 113.22823 1930 ft 209 kts 16°
2026-04-26 04:11 23.08988 113.23226 1915 ft 200 kts 15°
2026-04-26 04:11 23.10260 113.23567 1911 ft 173 kts 15°
2026-04-26 04:12 23.11336 113.23848 1876 ft 147 kts 15°
2026-04-26 04:12 23.12311 113.24105 1883 ft 142 kts 15°
2026-04-26 04:12 23.13283 113.24365 1902 ft 142 kts 16°
2026-04-26 04:12 23.14243 113.24622 1914 ft 142 kts 15°
2026-04-26 04:13 23.15207 113.24883 1920 ft 142 kts 16°
2026-04-26 04:13 23.16176 113.25146 1922 ft 142 kts 15°
2026-04-26 04:13 23.17141 113.25407 1924 ft 143 kts 16°
2026-04-26 04:13 23.18101 113.25668 1924 ft 143 kts 15°
2026-04-26 04:14 23.19077 113.25933 1925 ft 143 kts 15°
2026-04-26 04:14 23.20045 113.26196 1924 ft 142 kts 15°
2026-04-26 04:14 23.21018 113.26459 1923 ft 142 kts 16°
2026-04-26 04:14 23.21973 113.26718 1925 ft 142 kts 15°
2026-04-26 04:15 23.22942 113.26980 1926 ft 142 kts 16°
2026-04-26 04:15 23.23903 113.27241 1928 ft 142 kts 15°
2026-04-26 04:15 23.24858 113.27499 1929 ft 142 kts 15°
2026-04-26 04:15 23.25830 113.27762 1929 ft 142 kts 15°
2026-04-26 04:16 23.26793 113.28023 1932 ft 142 kts 15°
2026-04-26 04:16 23.27757 113.28284 1814 ft 142 kts 15°
2026-04-26 04:16 23.28709 113.28540 1638 ft 142 kts 16°
2026-04-26 04:16 23.29671 113.28800 1456 ft 142 kts 15°
2026-04-26 04:17 23.30634 113.29060 1275 ft 141 kts 16°
2026-04-26 04:17 23.31592 113.29320 1092 ft 140 kts 15°
2026-04-26 04:17 23.32533 113.29572 916 ft 140 kts 15°
2026-04-26 04:17 23.33488 113.29832 742 ft 139 kts 15°
2026-04-26 04:18 23.34423 113.30087 571 ft 140 kts 15°
2026-04-26 04:18 23.35372 113.30338 383 ft 139 kts 15°
2026-04-26 04:18 23.36308 113.30597 215 ft 139 kts 15°
2026-04-26 04:18 23.37242 113.30846 66 ft 135 kts 15°
2026-04-26 04:19 23.38056 113.31067 55 ft 96 kts 14°
2026-04-26 04:19 23.38541 113.31200 55 ft 47 kts 13°
2026-04-26 04:19 23.38751 113.31256 55 ft 26 kts 13°
2026-04-26 04:19 23.38929 113.31293 55 ft 24 kts
2026-04-26 04:20 23.39091 113.31277 55 ft 22 kts 347°
2026-04-26 04:20 23.39239 113.31239 55 ft 21 kts 347°
2026-04-26 04:20 23.39386 113.31226 55 ft 20 kts 11°
2026-04-26 04:20 23.39523 113.31262 55 ft 20 kts 14°
2026-04-26 04:21 23.39659 113.31299 55 ft 19 kts 13°
2026-04-26 04:21 23.39791 113.31335 55 ft 19 kts 14°
2026-04-26 04:21 23.39921 113.31370 55 ft 18 kts 14°
2026-04-26 04:21 23.40048 113.31404 55 ft 18 kts 14°
2026-04-26 04:22 23.40175 113.31438 55 ft 18 kts 15°
2026-04-26 04:22 23.40299 113.31455 55 ft 17 kts 333°
2026-04-26 04:22 23.40337 113.31374 55 ft 11 kts 284°
2026-04-26 04:22 23.40357 113.31287 55 ft 12 kts 284°
2026-04-26 04:23 23.40381 113.31187 55 ft 11 kts 283°
2026-04-26 04:23 23.40398 113.31111 55 ft 11 kts 284°
2026-04-26 04:23 23.40412 113.31020 55 ft 13 kts 253°
2026-04-26 04:23 23.40331 113.30974 55 ft 13 kts 192°
2026-04-26 04:24 23.40234 113.30951 55 ft 14 kts 193°
2026-04-26 04:24 23.40133 113.30922 55 ft 15 kts 194°
2026-04-26 04:24 23.40019 113.30891 55 ft 17 kts 193°
2026-04-26 04:24 23.39889 113.30856 55 ft 20 kts 194°
2026-04-26 04:25 23.39741 113.30815 55 ft 22 kts 193°
2026-04-26 04:25 23.39582 113.30773 55 ft 24 kts 193°
2026-04-26 04:25 23.39421 113.30730 55 ft 23 kts 195°
2026-04-26 04:25 23.39273 113.30689 55 ft 19 kts 201°
2026-04-26 04:26 23.39222 113.30591 55 ft 14 kts 272°
2026-04-26 04:26 23.39236 113.30482 55 ft 14 kts 284°
2026-04-26 04:26 23.39251 113.30405 55 ft 7 kts 261°
2026-04-26 04:26 23.39222 113.30386 55 ft 3 kts 193°
2026-04-26 04:27 23.39206 113.30381 55 ft 1 kts 194°
2026-04-26 04:27 23.39204 113.30381 55 ft 0 kts 194°